NWS Regional Weather Roundup - New England Area


742
ASUS41 KBOX 232010
RWRBOX

REGIONAL WEATHER ROUNDUP
NATIONAL WEATHER SERVICE TAUNTON MA
300 PM EST FRI FEB 23 2018

NOTE:  "FAIR" INDICATES FEW OR NO CLOUDS BELOW 12,000 FEET WITH NO
SIGNIFICANT WEATHER AND/OR OBSTRUCTIONS TO VISIBILITY.

MAZALL-232100-
EASTERN MASSACHUSETTS

CITY           SKY/WX    TMP DP  RH WIND       PRES   REMARKS
BOSTON         LGT RAIN  38  33  82 E13       30.49F WCI  30
BEVERLY        CLOUDY    38  31  76 SE10      30.48F WCI  31
LAWRENCE       CLOUDY    41  27  57 SE7       30.47F
BEDFORD        CLOUDY    38  30  73 SE9       30.45F WCI  31
BLUE HILL      NOT AVBL
NORWOOD        CLOUDY    42  32  67 S8        30.47F
MARSHFIELD     CLOUDY    39  36  87 SE9       30.48F
PLYMOUTH       CLOUDY    41  31  67 VRB7      30.49F
TAUNTON        CLOUDY    40  31  70 S6        30.49F
NEW BEDFORD    RAIN      38  35  89 SE9       30.49F FOG     WCI  31
$$

MAZALL-232100-
CAPE COD AND THE ISLANDS

CITY           SKY/WX    TMP DP  RH WIND       PRES   REMARKS
FALMOUTH       DRIZZLE   37  32  81 SE12      30.50  WCI  30
HYANNIS        LGT RAIN  40  32  73 SE7       30.48F
CHATHAM        CLOUDY    40  33  76 VRB6      30.52F
PROVINCETOWN   LGT RAIN  38  33  82 SE7       30.52F
NANTUCKET      LGT RAIN  39  34  82 SE12      30.50F WCI  32
MARTHAS VNYRD  LGT RAIN  39  32  76 E7        30.49F
$$

MAZALL-232100-
CENTRAL AND WESTERN MASSACHUSETTS

CITY           SKY/WX    TMP DP  RH WIND       PRES   REMARKS
WORCESTER      CLOUDY    33  31  92 SE9       30.41F WCI  25
FITCHBURG      CLOUDY    39  35  86 S7        30.45F
ORANGE         CLOUDY    34  32  92 SE6       30.43F WCI  29
SPRINGFIELD    CLOUDY    36  34  93 S3        30.42
WESTFIELD      CLOUDY    33  33 100 S3        30.44F FOG
NORTH ADAMS    LGT RAIN  34  29  82 E15G21    30.37F WCI  24
PITTSFIELD     LGT RAIN  33  28  81 SE15G22   30.35F WCI  23
$$

RIZALL-232100-
RHODE ISLAND

CITY           SKY/WX    TMP DP  RH WIND       PRES   REMARKS
PROVIDENCE     CLOUDY    38  36  92 S9        30.49F WCI  31
NEWPORT        CLOUDY    37  34  89 SE6       30.47F
BLOCK ISLAND   LGT RAIN  37  35  92 E13       30.47F WCI  29
SMITHFIELD     LGT RAIN  37  33  85 MISG      30.46F
WESTERLY       LGT RAIN  38  36  92 E8        30.47F FOG
$$

CTZALL-232100-
CONNECTICUT

CITY           SKY/WX    TMP DP  RH WIND       PRES   REMARKS
BRADLEY INTL   LGT RAIN  35  33  92 CALM      30.45F FOG
HARTFORD       CLOUDY    38  33  82 S5        30.46F
BRIDGEPORT     LGT RAIN  37  35  92 E10       30.46F FOG     WCI  30
DANBURY        LGT RAIN  36  34  92 VRB6      30.43F FOG     WCI  31
GROTON         LGT RAIN  38  35  89 E10       30.46F WCI  31
NEW HAVEN      LGT RAIN  38  33  82 E9        30.46F WCI  31
CHESTER        CLOUDY    37  34  87 SE9       30.44F WCI  31
MERIDEN        CLOUDY    37  32  82 S7        30.46F WCI  32
WILLIMANTIC    CLOUDY    38  32  79 VRB7      30.46F
OXFORD         LGT RAIN  34  32  92 SE10      30.41F FOG     WCI  26
$$

MEZ002-015-021-024-NHZ003-005-008-011-012-014-VTZ005-008-232100-
NORTHERN NEW ENGLAND

CITY           SKY/WX    TMP DP  RH WIND       PRES   REMARKS
PORTLAND ME    LGTSLEET  36  27  69 S12       30.48F WCI  28
BANGOR ME      CLOUDY    30  13  49 S9        30.49F WCI  22
CONCORD NH     CLOUDY    38  26  62 SE6       30.43F
MANCHESTER NH  CLOUDY    40  21  46 SE10      30.44F
NASHUA NH      CLOUDY    39  27  62 S6        30.46F
PORTSMOUTH NH  PTSUNNY   38  26  64 SE15      30.45  WCI  29
JAFFREY NH     CLOUDY    34  30  85 S9        30.40F WCI  27
KEENE NH       CLOUDY    35  29  78 S6        30.42F WCI  30
BURLINGTON VT  LGT RAIN  36  22  56 S21G35    30.23F WCI  25
MT. WASHINGTON CLOUDY    18  14  86 S49G60      N/A  VSB 1   WCI  -6
$$

NYZ052-076-232100-
EASTERN NEW YORK

CITY           SKY/WX    TMP DP  RH WIND       PRES   REMARKS
ALBANY         LGT RAIN  34  30  85 S16G23    30.36F WCI  24
NEW YORK CITY  LGT RAIN  38  35  89 NE10      30.43F VSB 1   WCI  31
$$

ANZALL-232100-
MARINE OBSERVATIONS

STATION/POSITION TIME  TEMP    WIND        PRES    VSBY  WAVE
                       AIR SEA DIR/SP/G                  HT/PER
                 (UTC) (F)     (DEG/KT/KT) (MB)    (MI)  (FT/S)
BOSTON BUOY      1950   38 40  140/ 14/ 16 1031.9F         3/ 5
BUZZARDS BAY     2000   37     100/ 10/ 12 1032.2F
NANTUCKET SOUND  1950   38 39  120/ 10/ 12 1033.1F         1/ 4
MASS BAY-STELLWA 1904   38 40              1032.6F         2/ 5
ISLE OF SHOALS   2000   37     160/ 16/ 17 1031.5F
S OF BLOCK IS    1943      41                N/A           4/ 5
$$

......................KEY.........................
  SKY/WX - SKY CONDITION/PRESENT WEATHER
  TMP    - TEMPERATURE IN FAHRENHEIT
  DWPT   - DEWPOINT IN FAHRENHEIT
  RH     - RELATIVE HUMIDITY IN PERCENT
  WIND   - DIRECTION AND SPEED IN MPH
  PRES   - MEAN SEA LEVEL PRESSURE IN INCHES OF HG
  WCI    - WIND CHILL INDEX
  VSB    - VISIBILITY IN MILES
  HX     - HEAT INDEX
  TC     - TEMPERATURE IN CELSIUS
  VRB    - VARIABLE WIND DIRECTION
  N/A    - NOT AVAILABLE

NWS BOx Office Area Forecast Discussion